Regional Weather Roundup
Issued by NWS Sioux Falls, SD

Home | Current Version | Previous Version | Text Only | Print | Product List | Glossary Off
Versions: 1 2 3 4 5 6 7 8 9 10 11 12 13 14 15 16 17 18 19 20 21 22 23 24 25 26 27 28 29 30 31 32 33 34 35 36 37 38 39 40 41 42 43 44 45 46 47 48 49 50

000
ASUS43 KFSD 242210
RWRFSD

WEATHER ROUNDUP FOR SE SOUTH DAKOTA/SW MINNESOTA/NW IOWA
NATIONAL WEATHER SERVICE SIOUX FALLS SD
500 PM CDT MON JUL 24 2017

NOTE: "FAIR" INDICATES FEW OR NO CLOUDS BELOW 12,000 FEET WITH NO
SIGNIFICANT WEATHER AND OR OBSTRUCTIONS TO VISIBILITY.


SDZ038>040-050-052>070-242300-
SOUTHEAST SOUTH DAKOTA

CITY           SKY/WX    TMP DP  RH WIND       PRES   REMARKS
BROOKINGS      MOSUNNY   79  63  57 SE15G22   29.96R
CHAMBERLAIN    SUNNY     95  69  42 SE22G30   29.78F HX 100
HURON          PTSUNNY   84  66  54 SE21G26   29.87F
MADISON        FAIR      77  64  65 SE12G20   29.95R
MITCHELL       MOSUNNY   89  66  46 SE20G28   29.86F
SIOUX FALLS    MOSUNNY   83  65  54 S20G26    29.93F
WINNER         FAIR     106  47  13 S22G28    29.76F HX 102
YANKTON        SUNNY     87  67  51 SE23      29.89F
$$

MNZ071-072-080-081-089-090-097-098-242300-
SOUTHWEST MINNESOTA

CITY           SKY/WX    TMP DP  RH WIND       PRES   REMARKS
FAIRMONT       MOSUNNY   77  63  61 SE12      30.02S
JACKSON        MOSUNNY   79  61  53 CALM      30.02S
LUVERNE        SUNNY     81  59  47 SE12G18   29.97F
MARSHALL       PTSUNNY   79  65  62 S16       29.97F
MONTEVIDEO     MOSUNNY   82  64  54 S12       29.98S
PIPESTONE      MOSUNNY   79  63  57 S10       29.97F
REDWOOD FALLS  MOSUNNY   78  62  57 SE13      29.99S
TRACY          MOSUNNY   79  66  64 SE12G17   29.99S
WINDOM         CLOUDY    77  63  61 SE9       30.00S
WORTHINGTON    MOSUNNY   79  64  60 SE14      30.00S
$$

IAZ001>003-012>014-020>022-031-032-NEZ013-014-SDZ071-242300-
NORTHWEST IOWA

CITY           SKY/WX    TMP DP  RH WIND       PRES   REMARKS
CHEROKEE       SUNNY     82  63  51 SE12G18   29.98F
DENISON        SUNNY     81  64  57 S10       29.99F
ESTHERVILLE    SUNNY     77  63  61 SE14      30.00F
ORANGE CITY    SUNNY     82  64  54 SE8G17    29.97S
SHELDON        SUNNY     81  64  57 MISG      29.96S
SIOUX CITY     SUNNY     85  66  53 SE12      29.94F
SPENCER        SUNNY     82  61  48 S13G21    29.99F
STORM LAKE     SUNNY     79  63  57 S10       30.00F
$$

ABBREVIATIONS USED IN REMARKS
   TC - TEMPERATURE IN CELSIUS
  WCI - WIND CHILL INDEX
   HX - HEAT INDEX
  VSB - VISIBILITY





USA.gov is the U.S. government's official web portal to all federal, state and local government web resources and services.